Flag Weather past 2 weeks in Bandar Seri Begawan, Brunei

Now
91 °F

Partly sunny.


Feels Like: 103 °F
Forecast: 76 / 88 °F
Wind: 10 mph from Southwest

Location: Brunei Airport

Current Time: Nov 29, 2014 at 3:50:15 PM

Latest Report: Nov 29, 2014 at 3:30 PM


Visibility: N/A

Pressure: 29.71 "Hg

Humidity: 59%

Dew point: 75 °F

Location of Bandar Seri BegawanLocation

Historic Weather in Bandar Seri Begawan — Graph

°F

Bandar Seri Begawan temperature yesterday

Maximum temperature yesterday: 88 °F (at 1:00 PM)
Minimum temperature yesterday: 77 °F (at 3:00 AM)
Average temperature yesterday: 81 °F

Past Weeks' High & Low Weather Summary

 TemperatureHumidityPressure
High91 °F (Nov 24, 11:30 AM)100% (Nov 14, 11:30 PM)29.89 "Hg (Nov 14, 11:30 PM)
Low75 °F (Nov 29, 1:30 AM)56% (Nov 24, 1:30 PM)29.68 "Hg (Nov 16, 4:00 PM)
Average82 °F86%29.79 "Hg
* Reported Nov 14 2:00 PM — Nov 29 2:30 PM, Bandar Seri Begawan, Weather by CustomWeather, © 2014

Note: Actual official high and low records may vary slightly from our data, if they occured in-between our weather recording intervals... More about our weather records

Advertising

Bandar Seri Begawan weather history for previous 24 hours

 ConditionsComfort  
Time TempWeatherWind HumidityBarometerVisibility
2:30 PM
Nov 29
91 °FBroken clouds.12 mph56%29.71 "HgN/A
2:00 PM91 °FPartly sunny.14 mph56%29.71 "HgN/A
1:30 PM91 °FPartly sunny.10 mph59%29.74 "HgN/A
1:00 PM90 °FPartly sunny.9 mph59%29.74 "HgN/A
12:30 PM90 °FPartly sunny.14 mph59%29.77 "HgN/A
12:00 PM90 °FPartly sunny.10 mph63%29.77 "HgN/A
11:30 AM88 °FPartly sunny.8 mph66%29.77 "HgN/A
11:00 AM86 °FBroken clouds.8 mph66%29.80 "HgN/A
10:30 AM84 °FBroken clouds.6 mph70%29.80 "HgN/A
10:00 AM84 °FPartly sunny.9 mph74%29.83 "HgN/A
9:30 AM82 °FPartly sunny.7 mph79%29.83 "HgN/A
9:00 AM81 °FPartly sunny.7 mph79%29.83 "HgN/A
8:30 AM79 °FPartly sunny.6 mph89%29.83 "HgN/A
8:00 AM77 °FPartly sunny.7 mph94%29.83 "HgN/A
7:30 AM77 °FPartly sunny.5 mph94%29.83 "HgN/A
7:00 AM75 °FBroken clouds.6 mph100%29.83 "HgN/A
6:30 AM75 °FPartly sunny.6 mph100%29.83 "HgN/A
6:00 AM75 °FPassing clouds.5 mph100%29.83 "HgN/A
5:30 AM75 °FPassing clouds.7 mph100%29.80 "HgN/A
5:00 AM75 °FPassing clouds.6 mph100%29.80 "HgN/A
4:30 AM75 °FPassing clouds.5 mph100%29.80 "HgN/A
4:00 AM75 °FPassing clouds.6 mph100%29.80 "HgN/A
3:30 AM75 °FPassing clouds.7 mph100%29.80 "HgN/A
3:00 AM75 °FPassing clouds.8 mph100%29.80 "HgN/A
2:30 AM77 °FPassing clouds.10 mph94%29.80 "HgN/A
2:00 AM75 °FLight rain. Passing clouds.12 mph100%29.80 "HgN/A
1:30 AM75 °FLight rain. Passing clouds.10 mph100%29.83 "HgN/A
1:00 AM77 °FLight rain. Passing clouds.10 mph94%29.83 "HgN/A
12:30 AM77 °FLight rain. Passing clouds.13 mph94%29.83 "HgN/A
12:00 AM77 °FLight rain. Passing clouds.9 mph94%29.83 "HgN/A
11:30 PM
Nov 28
77 °FLight rain. Passing clouds.7 mph100%29.83 "HgN/A
11:00 PM77 °FLight rain. Passing clouds.6 mph94%29.83 "HgN/A
10:30 PM77 °FLight rain. Passing clouds.6 mph94%29.83 "HgN/A
10:00 PM77 °FLight rain. Passing clouds.6 mph94%29.83 "Hg6 mi
9:30 PM77 °FLight rain. Passing clouds.3 mph100%29.83 "Hg6 mi
9:00 PM77 °FLight rain. Passing clouds.5 mph100%29.83 "Hg6 mi
8:30 PM77 °FLight rain. Passing clouds.5 mph100%29.83 "Hg4 mi
8:00 PM77 °FThunderstorms. Passing clouds.9 mph100%29.80 "Hg4 mi
7:30 PM77 °FThunderstorms. Partly cloudy.10 mph100%29.80 "Hg4 mi
7:00 PM82 °FThunderstorms. Partly cloudy.6 mph89%29.77 "Hg4 mi
6:30 PM82 °FThunderstorms. Partly cloudy.3 mph89%29.74 "Hg4 mi
6:00 PM84 °FThunderstorms. Broken clouds.7 mph79%29.74 "Hg4 mi
5:30 PM82 °FThunderstorms. Broken clouds.9 mph89%29.71 "HgN/A
5:00 PM86 °FBroken clouds.8 mph79%29.71 "HgN/A
4:30 PM86 °FBroken clouds.13 mph79%29.68 "HgN/A
4:00 PM88 °FBroken clouds.13 mph75%29.68 "HgN/A
3:30 PM88 °FBroken clouds.10 mph75%29.68 "HgN/A
3:00 PM86 °FScattered showers. Broken clouds.13 mph79%29.68 "Hg5 mi
Weather by CustomWeather, © 2014

See weather overviewHow to use our weather pages